Station RSJT2 - 8777812 - Rincon del San Jose, TX Image indicating link to RSS feed of recent meteorological observations for station RSJT2


Conditions at RSJT2 as of
(5:30 am CDT)
1030 GMT on 04/22/2024:
     

Click on the graph icon in the table below to see a time series plot of the last five days of that observation.

5-day plot - Wind Direction Wind Direction (WDIR):NNW ( 340 deg true )
5-day plot - Wind Speed Wind Speed (WSPD): 13.0 kts
5-day plot - Wind Gust Wind Gust (GST): 15.9 kts
5-day plot - Atmospheric Pressure Atmospheric Pressure (PRES):30.12 in
5-day plot - Air Temperature Air Temperature (ATMP): 65.7 °F
5-day plot - Water Temperature Water Temperature (WTMP): 76.8 °F
5-day plot - Wind Speed at 10 Meters Wind Speed at 10 meters (WSPD10M): 13.6 kts
5-day plot - Wind Speed at 20 Meters Wind Speed at 20 meters (WSPD20M): 13.6 kts
5-day plot -  Wind Speed, Wind Gust and Atmospheric Pressure Combined plot of Wind Speed, Gust, and Air Pressure
Previous observations
TIME
(CDT)
5-day plot - Wind Direction
WDIR
 
5-day plot - Wind Speed
WSPD
kts
5-day plot - Wind Gust
GST
kts
5-day plot - Wave Height
WVHT
ft
5-day plot - Dominant Wave Period
DPD
sec
5-day plot - Average Wave Period
APD
sec
5-day plot - Mean Wave Direction
MWD
 
5-day plot - Atmospheric Pressure
PRES
in
5-day plot - Pressure Tendency
PTDY
in
5-day plot - Air Temperature
ATMP
°F
5-day plot - Water Temperature
WTMP
°F
5-day plot - Dew Point
DEWP
°F
5-day plot - Salinity
SAL
psu
5-day plot - Visibility
VIS
nmi
5-day plot - Tide (above MLLW)
TIDE
ft
2024-04-22 05:24 am N 11.1 12.0----30.12- 66.2 76.8----
2024-04-22 05:18 am N 9.9 13.0----30.11- 66.6 76.8----
2024-04-22 05:12 amNNE 12.0 14.0----30.11- 68.5 76.8----
2024-04-22 05:06 am NE 12.0 14.0----30.11- 68.7 77.0----
2024-04-22 05:00 amNNE 8.9 12.0----30.11-0.05 68.4 77.0----
2024-04-22 04:54 am N 9.9 12.0----30.11- 67.5 77.0----
2024-04-22 04:48 am N 9.9 14.0----30.11- 67.1 77.0----
2024-04-22 04:42 am N 11.1 14.0----30.11- 66.7 77.0----
2024-04-22 04:36 am N 12.0 14.0----30.11- 66.7 77.0----
2024-04-22 04:30 am N 12.0 14.0----30.11- 66.7 77.0----
2024-04-22 04:24 am N 12.0 14.0----30.11- 67.1 77.2----
2024-04-22 04:18 am N 12.0 15.0----30.11- 67.1 77.2----
2024-04-22 04:12 am N 11.1 13.0----30.11- 66.9 77.2----
2024-04-22 04:06 am N 12.0 14.0----30.11- 66.4 77.2----
2024-04-22 04:00 am N 12.0 14.0----30.11-0.04 66.2 77.2----
2024-04-22 03:54 am N 12.0 14.0----30.11- 66.6 77.2----
2024-04-22 03:48 am N 12.0 14.0----30.12- 66.4 77.2----
2024-04-22 03:42 am N 12.0 14.0----30.12- 66.2 77.2----
2024-04-22 03:36 am N 12.0 14.0----30.12- 66.4 77.4----
2024-04-22 03:30 am N 12.0 14.0----30.12- 66.6 77.4----
2024-04-22 03:24 am N 13.0 14.0----30.12- 66.6 77.4----
2024-04-22 03:18 am N 12.0 13.0----30.13- 66.7 77.4----
2024-04-22 03:12 am N 12.0 13.0----30.13- 66.9 77.4----
2024-04-22 03:06 am N 12.0 14.0----30.14- 67.1 77.4----
2024-04-22 03:00 am N 11.1 12.0----30.14-0.02 67.1 77.4----
2024-04-22 02:54 am N 11.1 14.0----30.14- 67.6 77.4----
2024-04-22 02:48 am N 11.1 13.0----30.14- 67.6 77.4----
2024-04-22 02:42 am N 11.1 12.0----30.14- 67.5 77.4----
2024-04-22 02:36 amNNE 11.1 13.0----30.15- 68.5 77.5----
2024-04-22 02:30 amNNE 11.1 13.0----30.15- 68.5 77.5----
2024-04-22 02:24 amNNE 11.1 12.0----30.15- 68.5 77.5----
2024-04-22 02:18 amNNE 8.9 13.0----30.16- 68.5 77.5----
2024-04-22 02:12 amNNE 11.1 14.0----30.16- 68.7 77.5----
2024-04-22 02:06 amNNE 11.1 12.0----30.16- 68.7 77.5----
2024-04-22 02:00 amNNE 9.9 13.0----30.16+0.00 68.7 77.5----
2024-04-22 01:54 amNNE 11.1 14.0----30.16- 68.7 77.5----
2024-04-22 01:48 am NE 11.1 13.0----30.16- 68.7 77.5----
2024-04-22 01:42 amNNE 11.1 14.0----30.16- 68.7 77.5----
2024-04-22 01:36 amNNE 12.0 13.0----30.16- 68.7 77.5----
2024-04-22 01:30 amNNE 12.0 15.0----30.16- 68.9 77.5----
2024-04-22 01:24 amNNE 12.0 15.9----30.16- 68.7 77.5----
2024-04-22 01:18 am NE 13.0 14.0----30.15- 68.7 77.5----
2024-04-22 01:12 am NE 12.0 15.9----30.16- 68.7 77.7----
2024-04-22 01:06 am NE 12.0 15.0----30.15- 68.9 77.7----
2024-04-22 01:00 amNNE 13.0 15.0----30.15+0.01 69.1 77.7----
2024-04-22 12:54 amNNE 13.0 17.1----30.16- 69.1 77.7----
2024-04-22 12:48 amNNE 12.0 15.0----30.16- 69.1 77.7----
2024-04-22 12:42 am NE 12.0 14.0----30.16- 69.1 77.7----
2024-04-22 12:36 amNNE 11.1 13.0----30.17- 69.3 77.7----
2024-04-22 12:30 amNNE 11.1 15.9----30.17- 69.1 77.7----
2024-04-22 12:24 amNNE 12.0 13.0----30.16- 69.3 77.7----
2024-04-22 12:18 am NE 12.0 15.9----30.16- 69.3 77.9----
2024-04-22 12:12 am NE 13.0 15.0----30.16- 69.3 77.9----
2024-04-22 12:06 am NE 13.0 15.0----30.16- 69.4 77.9----
2024-04-22 12:00 am NE 14.0 17.1----30.16+0.03 69.4 77.9----
2024-04-21 11:54 pm NE 11.1 14.0----30.16- 69.3 77.9----
2024-04-21 11:48 pm NE 12.0 13.0----30.17- 69.3 78.1----
2024-04-21 11:42 pm NE 11.1 15.0----30.17- 69.3 78.1----
2024-04-21 11:36 pmNNE 12.0 14.0----30.17- 69.3 78.1----
2024-04-21 11:30 pm NE 13.0 15.0----30.17- 69.3 78.1----
2024-04-21 11:24 pm NE 14.0 17.1----30.17- 69.3 78.1----
2024-04-21 11:18 pm NE 14.0 18.1----30.17- 69.4 78.1----
2024-04-21 11:12 pm NE 13.0 15.9----30.16- 69.3 78.1----
2024-04-21 11:06 pm NE 14.0 17.1----30.16- 69.3 78.1----
2024-04-21 11:00 pm NE 13.0 15.9----30.16+0.05 69.3 78.1----
2024-04-21 10:54 pm NE 12.0 15.0----30.16- 68.9 78.1----
2024-04-21 10:48 pm NE 13.0 18.1----30.16- 69.1 78.1----
2024-04-21 10:42 pm NE 15.9 18.1----30.16- 69.1 78.1----
2024-04-21 10:36 pm NE 12.0 17.1----30.15- 68.9 78.1----
2024-04-21 10:30 pm NE 15.0 17.1----30.15- 69.3 78.1----
2024-04-21 10:24 pm NE 13.0 17.1----30.15- 68.9 78.1----
2024-04-21 10:18 pm NE 15.0 19.0----30.14- 68.9 78.1----
2024-04-21 10:12 pm NE 14.0 18.1----30.14- 68.9 78.1----
2024-04-21 10:06 pm NE 14.0 17.1----30.14- 68.7 78.1----
2024-04-21 10:00 pm NE 13.0 17.1----30.14+0.04 68.7 78.1----
2024-04-21 09:54 pmENE 14.0 17.1----30.14- 68.7 78.1----
2024-04-21 09:48 pm NE 12.0 15.0----30.14-- 78.1----
2024-04-21 09:42 pm NE 14.0 15.9----30.14-- 78.1----
2024-04-21 09:36 pm NE 15.0 18.1----30.14-- 78.1----
2024-04-21 09:30 pm NE 15.0 19.0----30.14- 68.9 78.1----
2024-04-21 09:24 pm NE 15.0 18.1----30.14- 68.7 78.1----
2024-04-21 09:18 pm NE 14.0 17.1----30.14- 68.7 77.9----
2024-04-21 09:12 pm NE 14.0 19.0----30.14- 68.5 77.9----
2024-04-21 09:06 pm NE 15.0 18.1----30.14- 68.5 77.9----
2024-04-21 09:00 pm NE 14.0 18.1----30.14+0.04 68.4-----
2024-04-21 08:54 pm NE 15.0 18.1----30.13- 68.4-----
2024-04-21 08:48 pm NE 12.0 17.1----30.13- 68.2 77.9----
2024-04-21 08:42 pm NE 13.0 17.1----30.13- 68.2 77.9----
2024-04-21 08:36 pm NE 17.1 20.0----30.12- 68.2 77.9----
2024-04-21 08:30 pm NE 15.9 19.0----30.12-- 77.9----
2024-04-21 08:24 pm NE 15.9 19.0----30.12-- 77.9----
2024-04-21 08:18 pm NE 15.9 19.0----30.12- 68.0 77.9----
2024-04-21 08:12 pmNNE 15.9 21.0----30.12- 68.0 77.9----
2024-04-21 08:06 pm NE 17.1 20.0----30.12- 68.0 77.9----
2024-04-21 08:00 pmNNE 17.1 21.0----30.11+0.02 68.0 77.9----
2024-04-21 07:54 pmNNE 17.1 21.0----30.11- 68.0 78.1----
2024-04-21 07:48 pmNNE 15.9 19.0----30.11- 68.0 78.1----
2024-04-21 07:42 pm NE 17.1 20.0----30.11- 67.8 78.1----
2024-04-21 07:36 pm NE 18.1 21.0----30.11- 67.8 78.1----
2024-04-21 07:30 pm NE 17.1 20.0----30.10- 67.6 78.1----
2024-04-21 07:24 pm NE 15.9 20.0----30.10- 67.6 78.1----
2024-04-21 07:18 pm NE 14.0 18.1----30.11-- 78.1----
2024-04-21 07:12 pm NE 17.1 20.0----30.11-- 78.3----
2024-04-21 07:06 pm NE 15.9 19.0----30.10-- 78.3----
2024-04-21 07:00 pm NE 14.0 18.1----30.10+0.00 67.5 78.1----
2024-04-21 06:54 pm NE 17.1 19.0----30.10- 67.3 78.1----
2024-04-21 06:48 pm NE 15.9 19.0----30.10- 67.5 78.1----
2024-04-21 06:42 pm NE 15.0 19.0----30.10- 67.3 78.1----
2024-04-21 06:36 pm NE 17.1 20.0----30.10- 67.3 78.1----
2024-04-21 06:30 pmNNE 18.1 21.0----30.10- 67.3 78.1----
2024-04-21 06:24 pmNNE 17.1 22.0----30.11- 67.3 78.1----
2024-04-21 06:18 pmNNE 18.1 20.0----30.11-- 78.1----
2024-04-21 06:12 pmNNE 19.0 21.0----30.10-- 78.1----
2024-04-21 06:00 pm NE 17.1 20.0----30.10-0.03 66.7 78.1----
2024-04-21 05:54 pm NE 17.1 21.0----30.10- 66.9 78.1----
2024-04-21 05:48 pmNNE 17.1 20.0----30.10-- 78.1----
2024-04-21 05:42 pmNNE 19.0 21.0----30.10-- 78.1----
2024-04-21 05:36 pmNNE 18.1 22.9----30.10-- 78.1----
2024-04-21 05:30 pmNNE 18.1 24.1----30.10- 66.7 78.1----
2024-04-21 05:24 pmNNE 18.1 24.1----30.10- 66.6 78.3----
2024-04-21 05:18 pmNNE 19.0 24.1----30.10- 66.9 78.3----
2024-04-21 05:12 pmNNE 20.0 22.9----30.10- 66.7 78.3----
2024-04-21 05:06 pmNNE 19.0 22.9----30.10- 66.7 78.3----
2024-04-21 05:00 pmNNE 20.0 24.1----30.10-0.04 66.7 78.3----
2024-04-21 04:54 pmNNE 21.0 25.1----30.09- 66.6 78.4----
2024-04-21 04:48 pmNNE 20.0 25.1----30.09- 66.6 78.4----
2024-04-21 04:42 pmNNE 21.0 24.1----30.09- 66.4 78.4----
2024-04-21 04:36 pmNNE 21.0 24.1----30.09- 66.6 78.4----
2024-04-21 04:30 pmNNE 19.0 22.9----30.10- 66.6 78.4----
2024-04-21 04:24 pmNNE 17.1 22.9----30.10- 66.6 78.4----
2024-04-21 04:18 pmNNE 20.0 22.9----30.10- 66.2 78.4----
2024-04-21 04:12 pmNNE 19.0 24.1----30.10- 66.4 78.4----
2024-04-21 04:06 pmNNE 18.1 22.0----30.10- 66.2 78.6----
2024-04-21 04:00 pmNNE 19.0 22.9----30.10-0.03 65.8 78.6----
2024-04-21 03:54 pmNNE 19.0 22.0----30.10- 65.8 78.6----
2024-04-21 03:48 pmNNE 19.0 22.9----30.11- 65.8 78.6----
2024-04-21 03:42 pmNNE 19.0 22.9----30.11- 65.5 78.6----
2024-04-21 03:36 pmNNE 19.0 22.0----30.11- 65.5 78.4----
2024-04-21 03:30 pmNNE 19.0 22.9----30.11- 65.3 78.4----
2024-04-21 03:24 pmNNE 19.0 22.0----30.12- 65.8 78.3----
2024-04-21 03:18 pmNNE 20.0 22.9----30.12- 65.7 78.1----
2024-04-21 03:12 pmNNE 17.1 22.9----30.12- 65.7 78.1----
2024-04-21 03:06 pmNNE 17.1 21.0----30.12- 65.5 78.1----
2024-04-21 03:00 pmNNE 18.1 21.0----30.13+0.00 64.9 78.1----
2024-04-21 02:54 pmNNE 17.1 24.1----30.13- 65.7 77.9----
2024-04-21 02:48 pmNNE 20.0 24.1----30.13- 66.2 77.9----
2024-04-21 02:42 pmNNE 20.0 22.9----30.13- 66.2 77.7----
2024-04-21 02:36 pmNNE 21.0 24.1----30.13- 66.2 77.7----
2024-04-21 02:30 pmNNE 21.0 25.1----30.13- 66.6 77.5----
2024-04-21 02:24 pmNNE 20.0 27.0----30.13- 66.6 77.4----
2024-04-21 02:18 pmNNE 22.0 25.1----30.13- 66.4 77.4----
2024-04-21 02:12 pmNNE 21.0 25.1----30.13- 66.4 77.2----
2024-04-21 02:06 pmNNE 21.0 25.1----30.13- 66.2 77.2----
2024-04-21 02:00 pmNNE 20.0 22.9----30.14+0.03 66.4 77.4----
2024-04-21 01:54 pmNNE 20.0 25.1----30.14- 66.2 77.4----
2024-04-21 01:48 pmNNE 20.0 24.1----30.14- 66.4 77.4----
2024-04-21 01:42 pmNNE 17.1 22.9----30.14- 66.6 77.5----
2024-04-21 01:36 pmNNE 20.0 24.1----30.14- 66.6 77.5----
2024-04-21 01:30 pmNNE 19.0 24.1----30.14- 66.7 77.7----
2024-04-21 01:24 pmNNE 21.0 25.1----30.14- 66.4 77.7----
2024-04-21 01:18 pmNNE 20.0 25.1----30.14- 66.6 77.7----
2024-04-21 01:12 pmNNE 20.0 25.1----30.14- 66.6 77.9----
2024-04-21 01:06 pmNNE 22.9 27.0----30.14- 66.4 77.9----
2024-04-21 01:00 pmNNE 22.9 26.0----30.13+0.06 66.4 78.1----
2024-04-21 12:54 pmNNE 22.9 26.0----30.13- 66.4 78.1----
2024-04-21 12:48 pmNNE 24.1 27.0----30.13- 66.0 78.3----
2024-04-21 12:42 pmNNE 22.9 28.0----30.13- 66.4 78.3----
2024-04-21 12:36 pmNNE 22.9 29.9----30.13- 66.2 78.4----
2024-04-21 12:30 pmNNE 24.1 28.0----30.13- 66.0 78.6----
2024-04-21 12:24 pmNNE 21.0 28.9----30.13- 66.4 78.6----
2024-04-21 12:18 pmNNE 24.1 29.9----30.13- 65.8 78.6----
2024-04-21 12:12 pmNNE 25.1 28.0----30.13- 65.7 79.0----
2024-04-21 12:06 pmNNE 24.1 28.9----30.13- 65.7 79.2----
2024-04-21 12:00 pmNNE 24.1 28.0----30.13+0.08 65.3 79.3----
2024-04-21 11:54 amNNE 24.1 28.9----30.13- 65.7 79.5----
2024-04-21 11:48 amNNE 24.1 28.0----30.13- 65.3 79.7----
2024-04-21 11:42 amNNE 24.1 28.0----30.13- 65.7 79.9----
2024-04-21 11:36 amNNE 22.9 26.0----30.13- 65.7 80.1----
2024-04-21 11:30 amNNE 22.9 27.0----30.11- 65.5 80.1----
2024-04-21 11:24 amNNE 22.9 28.9----30.11- 65.3 80.2----
2024-04-21 11:18 am N 22.0 28.0----30.12- 65.1 80.4----
2024-04-21 11:12 am N 26.0 29.9----30.11- 65.3 80.6----
2024-04-21 11:06 amNNE 22.0 27.0----30.11- 65.3 80.6----
2024-04-21 11:00 amNNE 19.0 24.1----30.11+0.09------
2024-04-21 10:54 am N 22.0 26.0----30.10-------
2024-04-21 10:48 am N 25.1 29.9----30.10-- 81.0----
2024-04-21 10:42 am N 22.0 26.0----30.09-- 81.0----
2024-04-21 10:36 am N 20.0 25.1----30.09-- 81.1----
2024-04-21 10:30 am N 22.0 27.0----30.09- 64.4 81.3----
2024-04-21 10:24 am N 22.9 26.0----30.09- 64.4 81.5----
2024-04-21 10:18 amNNE 22.0 27.0----30.08- 63.9 81.5----
2024-04-21 10:12 amNNE 22.0 28.9----30.08- 64.0 81.5----
2024-04-21 10:06 amNNE 26.0 28.9----30.07- 64.0 81.7----
2024-04-21 10:00 amNNE 22.9 28.0----30.08+0.09 64.0 81.7----
2024-04-21 09:54 am N 25.1 28.9----30.08- 64.2 81.9----
2024-04-21 09:48 am N 22.9 28.0----30.08- 64.2 81.9----
2024-04-21 09:42 am N 25.1 29.9----30.08- 65.5 81.9----
2024-04-21 09:36 am N 25.1 28.9----30.08- 66.0 81.9----
2024-04-21 09:30 amNNE 26.0 28.9----30.07- 67.3 82.0----
2024-04-21 09:24 amNNE 22.0 28.0----30.07- 66.9 82.0----
2024-04-21 09:18 amNNE 20.0 28.0----30.07- 67.3 82.0----
2024-04-21 09:12 amNNE 20.0 26.0----30.06- 67.1 82.0----
2024-04-21 09:06 am N 22.9 28.0----30.06- 67.6 82.0----
2024-04-21 09:00 amNNE 24.1 27.0----30.05+0.07 68.5 82.0----
2024-04-21 08:54 amNNE 21.0 25.1----30.04- 70.0 82.0----
2024-04-21 08:48 amNNE 21.0 24.1----30.05- 70.7 82.0----
2024-04-21 08:42 amNNE 19.0 24.1----30.05- 70.9 82.0----
2024-04-21 08:36 amNNE 22.0 24.1----30.04- 70.7 82.0----
2024-04-21 08:30 am NE 13.0 17.1----30.04- 73.9-----
2024-04-21 08:24 amENE 13.0 20.0----30.03- 73.9-----
2024-04-21 08:18 amENE 14.0 17.1----30.03- 73.9 82.0----
2024-04-21 08:12 amENE 14.0 19.0----30.03- 73.9 82.0----
2024-04-21 08:06 amENE 13.0 20.0----30.03- 73.8 82.0----
2024-04-21 08:00 amENE 19.0 22.9----30.02+0.08 73.8 82.0----
2024-04-21 07:54 amENE 19.0 22.9----30.01- 73.8 82.0----
2024-04-21 07:48 amENE 19.0 22.9----30.00-- 82.0----
2024-04-21 07:42 am NE 18.1 22.9----30.00-- 82.0----
2024-04-21 07:36 am NE 19.0 24.1----30.01-- 82.0----
2024-04-21 07:30 amENE 15.9 21.0----30.01-- 82.0----
2024-04-21 07:24 amENE 17.1 20.0----30.01-- 82.0----
2024-04-21 07:18 amENE 18.1 22.0----30.01-- 82.0----
2024-04-21 07:12 amENE 18.1 22.0----30.00-- 82.0----
2024-04-21 07:06 amENE 20.0 22.9----29.99-- 82.0----
2024-04-21 07:00 amENE 15.9 22.0----29.99+0.04 72.7 82.0----
2024-04-21 06:54 amENE 19.0 24.1----29.98- 72.5 82.0----
2024-04-21 06:48 amENE 19.0 22.9----29.98- 72.5 82.0----
2024-04-21 06:42 amENE 20.0 25.1----29.98- 72.5 82.0----
2024-04-21 06:36 amENE 20.0 25.1----29.97- 72.3 82.0----
2024-04-21 06:30 amENE 19.0 22.9----29.97- 72.3 82.0----
2024-04-21 06:24 amENE 21.0 25.1----29.96- 72.3 82.0----
2024-04-21 06:18 amENE 20.0 22.9----29.97- 72.1 82.0----
2024-04-21 06:12 amENE 20.0 22.9----29.97- 72.0 82.0----
2024-04-21 06:06 amENE 19.0 24.1----29.98- 72.0 82.0----
2024-04-21 06:00 amENE 15.9 25.1----29.98- 72.0 82.0----
2024-04-21 05:54 amENE 18.1 22.9----29.97- 71.8 82.2----